Terminal Aerodrome Forecast
Issued by NWS

Home | Current Version | Previous Version | Graphics & Text | Print | Product List | Glossary On
Versions: 1 2 3 4 5 6 7 8 9 10 11 12 13 14 15 16 17 18 19
766
FTUS41 KCLE 210520
TAFFDY
TAF
KFDY 210520Z 2106/2206 20003KT P6SM SCT050
     FM211000 VRB03KT P6SM SCT015 BKN025
     FM211300 36006KT P6SM SCT028 BKN090
     FM211500 05005KT P6SM SCT045
     FM212000 10004KT P6SM SCT045
     FM220200 VRB02KT P6SM SCT250=

USA.gov is the U.S. government's official web portal to all federal, state and local government web resources and services.